704  
ASUS44 KOHX 280810  
RWROHX  
MIDDLE TENNESSEE HOURLY WEATHER ROUNDUP  
NATIONAL WEATHER SERVICE NASHVILLE TN  
200 AM CST TUE JAN 28 2020  
 
NOTE: "FAIR" INDICATES FEW OR NO CLOUDS BELOW 12,000 FEET WITH  
NO SIGNIFICANT WEATHER AND/OR S TO VISIBILITY
.  
 
* THESE REPORTS ARE NOT UNDER NWS QUALITY CONTROL AND MAY NOT  
REPORT WEATHER SUCH AS PRECIPITATION AND FOG.
 
 
 
TNZ005>011-023>034-057-059-062>066-078-080-280900   
..NORTHERN MIDDLE TENNESSEE
 
 
 
CITY SKY/WX TMP DP RH WIND PRES REMARKS
 
CLARKSVILLE CLOUDY 32 31 96 E7 30.08R FOG WCI 26  
CROSSVILLE FAIR 34 29 82 NW5 29.99S WCI 30  
DICKSON FOG 32 32 100 NE6 30.03S VSB 1/2 WCI 26  
GALLATIN CLOUDY 34 32 93 N7 30.09S FOG WCI 28  
LEBANON CLOUDY 34 32 93 NE6 30.05S FOG WCI 29  
LIVINGSTON CLOUDY 32 30 93 NE7 30.00S FOG WCI 26  
NASHVILLE CLOUDY 35 31 85 NE9 30.06S FOG WCI 28  
PORTLAND CLOUDY 32 32 100 N7 30.05S FOG WCI 26  
ROCKWOOD CLEAR 36 32 87 N6 29.98S WCI 31  
SMYRNA CLOUDY 35 34 96 N9 30.07S FOG WCI 28  
SPARTA CLEAR 27 27 100 CALM 30.02S  
SPRINGFIELD CLOUDY 32 32 100 NE6 30.05R FOG WCI 26  
WEST NASHVILLE CLOUDY 34 32 93 CALM 30.05S FOG  

 
TNZ056-058-060-061-075>077-079-093>097-280900   
..SOUTHERN MIDDLE TENNESSEE
 
 
 
CITY SKY/WX TMP DP RH WIND PRES REMARKS
 
COLUMBIA CLEAR 32 32 100 CALM 30.03R  
FAYETTEVILLE CLEAR 39 34 81 NE3 30.01R  
LAWRENCEBURG CLEAR 32 30 93 CALM 30.02S  
LEWISBURG CLEAR 28 27 93 CALM 30.04R  
MCMINNVILLE CLEAR 30 28 93 CALM 30.02S  
MURFREESBORO PTCLDY 34 32 93 N7 30.04R FOG WCI 28  
PULASKI CLEAR 30 30 100 CALM 30.03R  
SHELBYVILLE CLEAR 32 32 100 CALM 30.03S  
TULLAHOMA CLEAR 30 28 93 CALM 30.01S  
WINCHESTER CLEAR 30 30 100 CALM 30.01S  

 
 
   
..KEY TO REMARKS
 
 
VSB - VISIBILITY IN MILES  
WCI - WIND CHILL INDEX  
HX - HEAT INDEX  
 
 
 
CLICK HERE TO GO TO PREVIOUS BULLETINS.

The Nexlab TN Page Main Text Page